| time (UTC) | temp C | wind direction | speed KPH | gust KPH | rain 1hr cm | rain 24hr cm | rain mn cm | humidity % | barometer mb |
| 20260507034804 | 8 | 46 | 1.6 | 4.8 | 0.00 | 0.00 | 0.00 | 89 | 1014.5 |
| 20260507033804 | 8 | 51 | 1.6 | 4.8 | 0.00 | 0.00 | 0.00 | 89 | 1014.4 |
| 20260507032306 | 8 | 32 | 1.6 | 4.8 | 0.00 | 0.00 | 0.00 | 89 | 1014.4 |
| 20260507030304 | 8 | 34 | 0.0 | 0.0 | 0.00 | 0.00 | 0.00 | 89 | 1014.3 |
| 20260507025804 | 8 | 34 | 0.0 | 0.0 | 0.00 | 0.00 | 0.00 | 89 | 1014.3 |
| 20260507025306 | 8 | 34 | 0.0 | 1.6 | 0.00 | 0.00 | 0.00 | 89 | 1014.3 |
| 20260507022804 | 8 | 33 | 0.0 | 1.6 | 0.00 | 0.00 | 0.00 | 89 | 1014.2 |
| 20260507021804 | 8 | 33 | 1.6 | 3.2 | 0.00 | 0.00 | 0.00 | 89 | 1014.2 |
| 20260507020304 | 8 | 33 | 0.0 | 1.6 | 0.00 | 0.00 | 0.00 | 89 | 1014.1 |
| 20260507015804 | 8 | 33 | 1.6 | 4.8 | 0.00 | 0.00 | 0.00 | 89 | 1014.1 |
| 20260507015306 | 8 | 34 | 0.0 | 1.6 | 0.00 | 0.00 | 0.00 | 89 | 1014.2 |
| 20260507013304 | 8 | 34 | 0.0 | 3.2 | 0.00 | 0.00 | 0.00 | 89 | 1014.1 |
| 20260507012804 | 8 | 34 | 1.6 | 4.8 | 0.00 | 0.00 | 0.00 | 89 | 1014.1 |
| 20260507011804 | 8 | 40 | 1.6 | 4.8 | 0.00 | 0.00 | 0.00 | 89 | 1014.1 |
| 20260507005305 | 8 | 73 | 1.6 | 4.8 | 0.00 | 0.00 | 0.00 | 88 | 1014.1 |
| 20260507004804 | 8 | 74 | 1.6 | 4.8 | 0.00 | 0.00 | 0.00 | 88 | 1014.1 |
| 20260507003304 | 8 | 74 | 0.0 | 1.6 | 0.00 | 0.00 | 0.00 | 88 | 1014.2 |
| 20260507002804 | 8 | 74 | 1.6 | 3.2 | 0.00 | 0.00 | 0.00 | 88 | 1014.2 |
| 20260507001804 | 8 | 74 | 0.0 | 4.8 | 0.00 | 0.00 | 0.00 | 88 | 1014.3 |
| 20260506235804 | 8 | 76 | 1.6 | 3.2 | 0.00 | 0.00 | 0.00 | 87 | 1014.3 |
| 20260506235306 | 8 | 76 | 0.0 | 8.0 | 0.00 | 0.00 | 0.00 | 87 | 1014.3 |
| 20260506234804 | 8 | 46 | 1.6 | 3.2 | 0.00 | 0.00 | 0.00 | 87 | 1014.3 |
| 20260506233304 | 8 | 42 | 0.0 | 1.6 | 0.00 | 0.00 | 0.00 | 87 | 1014.2 |
| 20260506232804 | 8 | 42 | 1.6 | 3.2 | 0.00 | 0.00 | 0.00 | 87 | 1014.2 |
| 20260506232306 | 8 | 42 | 1.6 | 3.2 | 0.00 | 0.00 | 0.00 | 87 | 1014.1 |
| 20260506231304 | 8 | 42 | 0.0 | 0.0 | 0.00 | 0.00 | 0.00 | 87 | 1014.1 |
| 20260506230813 | 8 | 42 | 0.0 | 1.6 | 0.00 | 0.00 | 0.00 | 87 | 1014.1 |
| 20260506222306 | 8 | 42 | 0.0 | 1.6 | 0.00 | 0.00 | 0.00 | 85 | 1013.9 |
| 20260506221804 | 8 | 42 | 1.6 | 3.2 | 0.00 | 0.00 | 0.00 | 85 | 1013.9 |
| 20260506215804 | 9 | 42 | 0.0 | 3.2 | 0.00 | 0.00 | 0.00 | 85 | 1013.8 |
| 20260506214304 | 9 | 38 | 1.6 | 4.8 | 0.00 | 0.00 | 0.00 | 84 | 1013.7 |
| 20260506213804 | 9 | 38 | 1.6 | 4.8 | 0.00 | 0.00 | 0.00 | 84 | 1013.7 |
| 20260506212306 | 9 | 38 | 0.0 | 4.8 | 0.00 | 0.00 | 0.00 | 84 | 1013.7 |
| 20260506210804 | 9 | 30 | 0.0 | 0.0 | 0.00 | 0.00 | 0.00 | 84 | 1013.5 |
| 20260506210304 | 9 | 44 | 0.0 | 0.0 | 0.00 | 0.00 | 0.00 | 84 | 1013.5 |
| 20260506205804 | 9 | 42 | 0.0 | 0.0 | 0.00 | 0.00 | 0.00 | 84 | 1013.5 |
| 20260506202804 | 9 | 51 | 0.0 | 0.0 | 0.00 | 0.00 | 0.00 | 83 | 1013.2 |
| 20260506201804 | 9 | 57 | 3.2 | 4.8 | 0.00 | 0.00 | 0.00 | 83 | 1013.2 |
| 20260506201304 | 9 | 56 | 1.6 | 4.8 | 0.00 | 0.00 | 0.00 | 83 | 1013.1 |
| 20260506195306 | 9 | 57 | 3.2 | 4.8 | 0.00 | 0.00 | 0.00 | 82 | 1013.0 |
| 20260506194804 | 9 | 46 | 3.2 | 8.0 | 0.00 | 0.00 | 0.00 | 82 | 1013.0 |
| 20260506194304 | 9 | 46 | 3.2 | 4.8 | 0.00 | 0.00 | 0.00 | 81 | 1012.9 |
| 20260506193804 | 10 | 48 | 3.2 | 8.0 | 0.00 | 0.00 | 0.00 | 81 | 1012.9 |
| 20260506193304 | 10 | 33 | 3.2 | 8.0 | 0.00 | 0.00 | 0.00 | 80 | 1012.8 |
| 20260506192804 | 10 | 14 | 1.6 | 4.8 | 0.00 | 0.00 | 0.00 | 80 | 1012.8 |
| 20260506192305 | 10 | 18 | 3.2 | 8.0 | 0.00 | 0.00 | 0.00 | 80 | 1012.8 |
| 20260506191304 | 10 | 8 | 3.2 | 4.8 | 0.00 | 0.00 | 0.00 | 80 | 1012.7 |
| 20260506190304 | 10 | 60 | 4.8 | 9.7 | 0.00 | 0.00 | 0.00 | 80 | 1012.7 |
| 20260506184804 | 10 | 53 | 4.8 | 8.0 | 0.00 | 0.00 | 0.00 | 80 | 1012.6 |
| 20260506183303 | 10 | 32 | 3.2 | 8.0 | 0.00 | 0.00 | 0.00 | 80 | 1012.4 |
| 20260506182804 | 10 | 26 | 3.2 | 8.0 | 0.00 | 0.00 | 0.00 | 80 | 1012.4 |
| 20260506182306 | 10 | 47 | 4.8 | 12.9 | 0.00 | 0.00 | 0.00 | 79 | 1012.4 |
| 20260506181804 | 10 | 45 | 4.8 | 11.3 | 0.00 | 0.00 | 0.00 | 79 | 1012.4 |
| 20260506175803 | 10 | 48 | 4.8 | 11.3 | 0.00 | 0.00 | 0.00 | 79 | 1012.1 |
| 20260506175306 | 10 | 39 | 4.8 | 8.0 | 0.00 | 0.00 | 0.00 | 79 | 1012.0 |
| 20260506174304 | 10 | 53 | 6.4 | 14.5 | 0.00 | 0.00 | 0.00 | 79 | 1012.0 |
| 20260506173804 | 10 | 61 | 4.8 | 16.1 | 0.00 | 0.00 | 0.00 | 78 | 1012.0 |
| 20260506173303 | 10 | 63 | 6.4 | 16.1 | 0.00 | 0.00 | 0.00 | 78 | 1011.9 |
| 20260506170804 | 11 | 34 | 4.8 | 19.3 | 0.00 | 0.00 | 0.00 | 74 | 1011.8 |
| 20260506165804 | 12 | 29 | 4.8 | 8.0 | 0.00 | 0.00 | 0.00 | 72 | 1011.7 |
| 20260506163804 | 12 | 345 | 4.8 | 12.9 | 0.00 | 0.00 | 0.00 | 70 | 1011.6 |
| 20260506162804 | 12 | 29 | 4.8 | 12.9 | 0.00 | 0.00 | 0.00 | 69 | 1011.6 |
| 20260506161304 | 12 | 24 | 8.0 | 14.5 | 0.00 | 0.00 | 0.00 | 69 | 1011.7 |
| 20260506160804 | 12 | 342 | 8.0 | 20.9 | 0.00 | 0.00 | 0.00 | 69 | 1011.7 |
| 20260506160305 | 11 | 329 | 11.3 | 20.9 | 0.00 | 0.00 | 0.00 | 69 | 1011.7 |
| 20260506154804 | 12 | 25 | 9.7 | 19.3 | 0.00 | 0.00 | 0.00 | 69 | 1011.8 |
| 20260506154304 | 12 | 7 | 6.4 | 14.5 | 0.00 | 0.00 | 0.00 | 69 | 1011.8 |
| 20260506153304 | 12 | 353 | 6.4 | 12.9 | 0.00 | 0.00 | 0.00 | 69 | 1011.8 |
| 20260506152305 | 12 | 354 | 6.4 | 14.5 | 0.00 | 0.00 | 0.00 | 68 | 1011.6 |
| 20260506151804 | 12 | 34 | 8.0 | 19.3 | 0.00 | 0.00 | 0.00 | 68 | 1011.6 |
| 20260506145804 | 12 | 40 | 4.8 | 19.3 | 0.00 | 0.00 | 0.00 | 68 | 1011.7 |
| 20260506144804 | 12 | 52 | 6.4 | 19.3 | 0.00 | 0.00 | 0.00 | 69 | 1011.7 |
| 20260506143804 | 12 | 6 | 8.0 | 19.3 | 0.00 | 0.00 | 0.00 | 67 | 1011.7 |
| 20260506143304 | 12 | 20 | 6.4 | 12.9 | 0.00 | 0.00 | 0.00 | 67 | 1011.7 |
| 20260506142804 | 12 | 22 | 9.7 | 19.3 | 0.00 | 0.00 | 0.00 | 66 | 1011.7 |
| 20260506141804 | 13 | 7 | 9.7 | 24.1 | 0.00 | 0.00 | 0.00 | 65 | 1011.7 |
| 20260506141304 | 13 | 332 | 9.7 | 19.3 | 0.00 | 0.00 | 0.00 | 64 | 1011.5 |
| 20260506140804 | 13 | 350 | 9.7 | 19.3 | 0.00 | 0.00 | 0.00 | 64 | 1011.5 |
| 20260506140304 | 12 | 11 | 6.4 | 19.3 | 0.00 | 0.00 | 0.00 | 65 | 1011.6 |
| 20260506135804 | 12 | 23 | 11.3 | 19.3 | 0.00 | 0.00 | 0.00 | 65 | 1011.6 |
| 20260506134304 | 12 | 345 | 8.0 | 19.3 | 0.00 | 0.00 | 0.00 | 64 | 1011.7 |
| 20260506133304 | 13 | 13 | 8.0 | 19.3 | 0.00 | 0.00 | 0.00 | 63 | 1011.8 |
| 20260506132804 | 12 | 347 | 8.0 | 16.1 | 0.00 | 0.00 | 0.00 | 63 | 1011.8 |
| 20260506132307 | 12 | 24 | 8.0 | 16.1 | 0.00 | 0.00 | 0.00 | 64 | 1011.7 |
| 20260506125804 | 12 | 5 | 4.8 | 19.3 | 0.00 | 0.00 | 0.00 | 63 | 1011.8 |
| 20260506124804 | 12 | 337 | 8.0 | 19.3 | 0.00 | 0.00 | 0.00 | 62 | 1011.6 |
| 20260506121804 | 12 | 44 | 6.4 | 16.1 | 0.00 | 0.00 | 0.00 | 62 | 1011.6 |
| 20260506121304 | 12 | 24 | 9.7 | 19.3 | 0.00 | 0.00 | 0.00 | 65 | 1011.7 |
| 20260506115804 | 12 | 336 | 9.7 | 19.3 | 0.00 | 0.00 | 0.00 | 65 | 1011.7 |
| 20260506114804 | 12 | 1 | 9.7 | 19.3 | 0.00 | 0.00 | 0.00 | 64 | 1011.7 |
| 20260506114304 | 12 | 321 | 6.4 | 16.1 | 0.00 | 0.00 | 0.00 | 63 | 1011.7 |
| 20260506113804 | 12 | 32 | 3.2 | 14.5 | 0.00 | 0.00 | 0.00 | 63 | 1011.7 |
| 20260506113304 | 12 | 335 | 8.0 | 19.3 | 0.00 | 0.00 | 0.00 | 61 | 1011.6 |
| 20260506111303 | 11 | 339 | 9.7 | 19.3 | 0.00 | 0.00 | 0.00 | 64 | 1011.6 |
| 20260506105804 | 11 | 329 | 12.9 | 20.9 | 0.00 | 0.00 | 0.00 | 65 | 1011.6 |
| 20260506104804 | 11 | 23 | 9.7 | 20.9 | 0.00 | 0.00 | 0.00 | 65 | 1011.7 |
| 20260506103804 | 11 | 11 | 8.0 | 20.9 | 0.00 | 0.00 | 0.00 | 67 | 1011.8 |
| 20260506103304 | 11 | 27 | 11.3 | 20.9 | 0.00 | 0.00 | 0.00 | 67 | 1011.7 |
| 20260506102305 | 11 | 3 | 11.3 | 25.7 | 0.00 | 0.00 | 0.00 | 66 | 1011.6 |
| 20260506100803 | 11 | 33 | 9.7 | 20.9 | 0.00 | 0.00 | 0.00 | 68 | 1011.6 |
| 20260506095804 | 11 | 337 | 9.7 | 16.1 | 0.00 | 0.00 | 0.00 | 68 | 1011.6 |
| 20260506095305 | 11 | 12 | 9.7 | 22.5 | 0.00 | 0.00 | 0.00 | 69 | 1011.7 |
| 20260506094804 | 11 | 314 | 4.8 | 19.3 | 0.00 | 0.00 | 0.00 | 69 | 1011.7 |
| 20260506094304 | 11 | 39 | 8.0 | 19.3 | 0.00 | 0.00 | 0.00 | 69 | 1011.8 |
| 20260506092804 | 10 | 344 | 11.3 | 25.7 | 0.00 | 0.00 | 0.00 | 68 | 1011.7 |
| 20260506092306 | 11 | 6 | 8.0 | 19.3 | 0.00 | 0.00 | 0.00 | 70 | 1011.7 |
| 20260506091304 | 11 | 20 | 8.0 | 19.3 | 0.00 | 0.00 | 0.00 | 74 | 1011.7 |
| 20260506090304 | 10 | 339 | 8.0 | 14.5 | 0.00 | 0.00 | 0.00 | 77 | 1011.7 |
| 20260506085804 | 9 | 7 | 9.7 | 20.9 | 0.00 | 0.00 | 0.00 | 77 | 1011.7 |
| 20260506085306 | 9 | 23 | 8.0 | 19.3 | 0.00 | 0.00 | 0.00 | 77 | 1011.5 |
| 20260506084304 | 9 | 332 | 8.0 | 19.3 | 0.00 | 0.00 | 0.00 | 76 | 1011.5 |
| 20260506083304 | 10 | 298 | 4.8 | 16.1 | 0.00 | 0.00 | 0.00 | 78 | 1011.4 |
| 20260506082804 | 10 | 19 | 8.0 | 16.1 | 0.00 | 0.00 | 0.00 | 77 | 1011.4 |
| 20260506081304 | 8 | 331 | 9.7 | 16.1 | 0.00 | 0.00 | 0.00 | 79 | 1011.5 |
| 20260506080306 | 8 | 316 | 11.3 | 20.9 | 0.00 | 0.00 | 0.00 | 78 | 1011.5 |
| 20260506073304 | 8 | 345 | 4.8 | 14.5 | 0.00 | 0.00 | 0.00 | 79 | 1011.4 |
| 20260506072306 | 8 | 344 | 11.3 | 22.5 | 0.00 | 0.00 | 0.00 | 80 | 1011.3 |
| 20260506070804 | 8 | 328 | 8.0 | 19.3 | 0.00 | 0.00 | 0.00 | 82 | 1011.3 |
| 20260506070304 | 8 | 336 | 8.0 | 14.5 | 0.00 | 0.00 | 0.00 | 82 | 1011.2 |
| 20260506060804 | 7 | 12 | 4.8 | 14.5 | 0.00 | 0.00 | 0.00 | 86 | 1011.2 |
| 20260506060303 | 7 | 354 | 9.7 | 20.9 | 0.00 | 0.00 | 0.00 | 87 | 1011.0 |
| 20260506051304 | 7 | 16 | 6.4 | 19.3 | 0.00 | 0.03 | 0.00 | 87 | 1011.0 |
| 20260506050304 | 7 | 356 | 8.0 | 16.1 | 0.00 | 0.03 | 0.00 | 88 | 1010.9 |
| 20260506043804 | 7 | 6 | 9.7 | 19.3 | 0.00 | 0.03 | 0.00 | 88 | 1010.7 |
| 20260506043304 | 7 | 356 | 8.0 | 19.3 | 0.00 | 0.03 | 0.00 | 88 | 1010.6 |
| 20260506042804 | 7 | 6 | 6.4 | 19.3 | 0.00 | 0.03 | 0.00 | 88 | 1010.6 |
| 20260506041804 | 7 | 13 | 6.4 | 14.5 | 0.00 | 0.03 | 0.00 | 88 | 1010.6 |
| 20260506041304 | 7 | 349 | 4.8 | 14.5 | 0.00 | 0.03 | 0.00 | 88 | 1010.5 |
| 20260506040804 | 7 | 2 | 4.8 | 12.9 | 0.00 | 0.03 | 0.00 | 87 | 1010.5 |
| 20260506040304 | 7 | 48 | 4.8 | 14.5 | 0.00 | 0.03 | 0.00 | 87 | 1010.5 |